一网星座-0119星 (ONEWEB-0119 )

导读

ONEWEB-0119是英国OneWeb卫星互联网星座中的一颗低轨通信卫星,于2020年12月18日发射入轨。卫星重约147.5公斤,配备Ku波段通信天线与霍尔效应推进器,单星通信能力约7.5Gbps,设计寿命5年,旨在为全球覆盖不足区域提供高速宽带互联网服务,是OneWeb一期星座组网的组成部分。

基本信息
目录编号:
47265
目录名称:
ONEWEB-0119
国际标识:
2020-100H
轨道中心:
EARTH
卫星名称:
一网星座-0119星
卫星全名:
一网星座-0119星 (ONEWEB-0119 )
卫星状态:
在轨 (已飞行2002 天)
发射日期:
2020-12-18 UTC
国别 :
英国 (GB)
星等 :
--
轨道信息
数据来源 国际轨道数据 AOE轨道数据
星历时间 2026-06-12T13:59:34+0800
14小时前
查看轨道信息
2026-06-08T09:00:00+0800
4天前
查看轨道信息
半长轴 7591.858km 7591.864km
偏心率 0.000182 0.000168
轨道倾角 87.894° 87.894°
近地点辐角 90.893° 88.477°
升交点赤经 351.652° 352.489°
平近点角 269.241° 200.826°
近地点 1212.339km 1212.451km
远地点 1215.103km 1215.003km
周期 109.719分钟 109.719分钟
每日圈数 13.124436 13.124421
详细信息
平衡模式:
三轴稳定
覆盖范围:
全球
运营商:
一网卫星公司
运营商所在国:
英国
制造商(研发单位):
一网卫星公司
制造商所在国:
英国
使用方式:
暂无
卫星简介
OneWeb卫星网络由648颗重约125公斤的微型卫星组成,运行在1200公里的轨道上。 每颗卫星都能够提供至少每秒8千兆位的吞吐量,以使用其高吞吐量的Ku频段有效载荷为家庭和移动平台提供互联网接入。该卫星仍在工作。
2D轨道图
3D轨道图
轨道高度分析图
轨道倾角分析图
轨道综合分析图
查看轨道综合分析图